Location: Aressy
(43.2833°N, 0.3167°W)
Time: 01:18:11
(UTC+00:00)

Cosmos 1844 Rocket - Pass Details

Date: 28 January 2021
Orbit: 826 x 843 km, 71.0° (Epoch: 08 March)

Event Time Altitude Azimuth Distance (km) Brightness Sun altitude
Rises 17:32:25 0° 219° (SW) 3,387 7.0 -4.9°
Reaches altitude 10° 17:34:56 10° 225° (SW) 2,454 6.4 -5.4°
Maximum altitude 17:40:23 49° 300° (WNW) 1,075 3.6 -6.3°
Drops below altitude 10° 17:45:51 10° 15° (NNE) 2,460 4.8 -7.2°
Sets 17:48:23 0° 21° (NNE) 3,396 5.5 -7.7°
